timestamp,surface_pressure_avg,surface_temp_avg,battery_voltage,lat,long
2022-10-06 00:09:00+00:00,251.0164,14.1,11.53,47.84626,-54.09684
2022-10-06 00:19:00+00:00,246.3098,14.1,11.53,47.84626,-54.09684
2022-10-06 00:29:00+00:00,240.3481,14.1,11.53,47.84626,-54.09684
2022-10-06 00:39:00+00:00,239.5447,14.1,11.53,47.84626,-54.09684
2022-10-06 00:49:00+00:00,238.1647,14.1,11.53,47.84626,-54.09684
2022-10-06 00:59:00+00:00,230.6331,14.1,11.53,47.84626,-54.09684
2022-10-06 01:09:00+00:00,224.2231,14.1,11.53,47.84626,-54.09684
2022-10-06 01:19:00+00:00,225.1981,14.1,11.53,47.84626,-54.09684
2022-10-06 01:29:00+00:00,225.3331,14.1,11.53,47.84626,-54.09684
2022-10-06 01:39:00+00:00,221.3414,14.1,11.53,47.84626,-54.09684
2022-10-06 01:49:00+00:00,216.1964,14.1,11.53,47.84626,-54.09684
2022-10-06 01:59:00+00:00,214.6881,14.1,11.53,47.84626,-54.09684
2022-10-06 02:09:00+00:00,216.4115,14.1,11.53,47.84626,-54.09684
2022-10-06 02:19:00+00:00,216.5964,14.1,11.46,47.84626,-54.09684
2022-10-06 02:29:00+00:00,215.0681,14.1,11.46,47.84626,-54.09684
2022-10-06 02:39:00+00:00,212.7648,14.1,11.46,47.84626,-54.09684
2022-10-06 02:49:00+00:00,211.8081,14.09,11.46,47.84626,-54.09684
2022-10-06 02:59:00+00:00,209.1748,14.0,11.46,47.84626,-54.09684
2022-10-06 03:09:00+00:00,206.1998,13.9,11.46,47.84626,-54.09684
2022-10-06 03:19:00+00:00,204.3414,13.89,11.46,47.84626,-54.09684
2022-10-06 03:29:00+00:00,208.4014,13.9,11.46,47.84626,-54.09684
2022-10-06 03:39:00+00:00,210.9648,13.9,11.46,47.84626,-54.09684
2022-10-06 03:49:00+00:00,207.3898,13.9,11.46,47.84626,-54.09684
2022-10-06 03:59:00+00:00,205.4764,13.9,11.46,47.84626,-54.09684
2022-10-06 04:09:00+00:00,210.0664,13.9,11.46,47.84626,-54.09684
2022-10-06 04:19:00+00:00,216.1564,13.9,11.46,47.84626,-54.09684
2022-10-06 04:29:00+00:00,215.7615,13.94,11.46,47.84626,-54.09684
2022-10-06 04:39:00+00:00,216.1348,13.96,11.46,47.84626,-54.09684
2022-10-06 04:49:00+00:00,225.1281,13.97,11.46,47.84626,-54.09684
2022-10-06 04:59:00+00:00,233.5081,13.99,11.46,47.84626,-54.09684
2022-10-06 05:09:00+00:00,236.9148,13.96,11.46,47.84626,-54.09684
2022-10-06 05:19:00+00:00,242.5914,13.93,11.46,47.84626,-54.09684
2022-10-06 05:29:00+00:00,250.7631,13.99,11.46,47.84626,-54.09684
2022-10-06 05:39:00+00:00,255.9148,14.0,11.46,47.84626,-54.09684
2022-10-06 05:49:00+00:00,261.2547,14.05,11.46,47.84626,-54.09684
2022-10-06 05:59:00+00:00,268.3131,14.08,11.46,47.84626,-54.09684
2022-10-06 06:09:00+00:00,274.5647,14.1,11.46,47.84626,-54.09684
2022-10-06 06:19:00+00:00,277.4581,14.1,11.46,47.84626,-54.09684
2022-10-06 06:29:00+00:00,285.3248,14.1,11.46,47.84626,-54.09684
2022-10-06 06:39:00+00:00,293.3698,14.1,11.46,47.84626,-54.09684
2022-10-06 06:49:00+00:00,294.4864,14.1,11.46,47.84626,-54.09684
2022-10-06 06:59:00+00:00,295.6998,14.1,11.46,47.84626,-54.09684
2022-10-06 07:09:00+00:00,305.1296,14.1,11.46,47.84626,-54.09684
2022-10-06 07:19:00+00:00,308.798,14.1,11.46,47.84626,-54.09684
2022-10-06 07:29:00+00:00,301.8446,14.1,11.46,47.84626,-54.09684
2022-10-06 07:39:00+00:00,306.6163,14.1,11.46,47.84626,-54.09684
2022-10-06 07:49:00+00:00,313.6464,14.1,11.46,47.84626,-54.09684
2022-10-06 07:59:00+00:00,309.508,14.1,11.46,47.84626,-54.09684
2022-10-06 08:09:00+00:00,309.95799999999997,14.1,11.46,47.84626,-54.09684
2022-10-06 08:19:01+00:00,318.103,14.1,11.46,47.84626,-54.09684
2022-10-06 08:29:01+00:00,321.4763,14.1,11.46,47.84626,-54.09684
2022-10-06 08:39:01+00:00,316.8163,14.1,11.46,47.84626,-54.09684
2022-10-06 08:49:01+00:00,316.663,14.1,11.46,47.84626,-54.09684
2022-10-06 08:59:01+00:00,325.1964,14.1,11.46,47.84626,-54.09684
2022-10-06 09:09:01+00:00,326.3113,14.1,11.46,47.84626,-54.09684
2022-10-06 09:19:00+00:00,325.538,14.1,11.46,47.84626,-54.09684
2022-10-06 09:29:00+00:00,327.7213,14.1,11.46,47.84626,-54.09684
2022-10-06 09:39:00+00:00,325.438,14.1,11.46,47.84626,-54.09684
2022-10-06 09:49:00+00:00,318.9814,14.1,11.46,47.84626,-54.09684
2022-10-06 09:59:00+00:00,317.368,14.1,11.46,47.84626,-54.09684
2022-10-06 10:09:00+00:00,315.2029,14.1,11.46,47.84626,-54.09684
2022-10-06 10:19:00+00:00,308.7513,14.1,11.46,47.84626,-54.09684
2022-10-06 10:29:00+00:00,302.0464,14.1,11.46,47.84626,-54.09684
2022-10-06 10:39:00+00:00,300.223,14.1,11.46,47.84626,-54.09684
2022-10-06 10:49:00+00:00,292.303,14.1,11.46,47.84626,-54.09684
2022-10-06 10:59:00+00:00,287.303,14.1,11.46,47.84626,-54.09684
2022-10-06 11:09:00+00:00,288.833,14.1,11.46,47.84626,-54.09684
2022-10-06 11:19:00+00:00,285.3364,14.1,11.46,47.84626,-54.09684
2022-10-06 11:29:00+00:00,270.6014,14.1,11.46,47.84626,-54.09684
2022-10-06 11:39:00+00:00,263.7963,14.1,11.46,47.84626,-54.09684
2022-10-06 11:49:00+00:00,265.1948,14.0,11.46,47.84626,-54.09684
2022-10-06 11:59:00+00:00,256.3848,13.8,11.46,47.84626,-54.09684
2022-10-06 12:09:00+00:00,245.1281,13.7,11.46,47.84626,-54.09684
2022-10-06 12:19:00+00:00,246.3431,13.74,11.53,47.84626,-54.09684
2022-10-06 12:29:00+00:00,244.1631,13.79,11.53,47.84626,-54.09684
2022-10-06 12:39:00+00:00,232.2914,13.7,11.53,47.84626,-54.09684
2022-10-06 12:49:00+00:00,224.8331,13.7,11.53,47.84626,-54.09684
2022-10-06 12:59:00+00:00,228.4314,13.71,11.53,47.84626,-54.09684
2022-10-06 13:09:00+00:00,225.4464,13.78,11.53,47.84626,-54.09684
2022-10-06 13:19:00+00:00,215.9665,13.8,11.61,47.84626,-54.09684
2022-10-06 13:29:00+00:00,215.0348,13.8,11.61,47.84626,-54.09684
2022-10-06 13:39:00+00:00,218.8948,13.8,11.61,47.84626,-54.09684
2022-10-06 13:49:00+00:00,211.8398,13.8,11.61,47.84626,-54.09684
2022-10-06 13:59:00+00:00,205.7997,13.8,11.61,47.84626,-54.09684
2022-10-06 14:09:00+00:00,208.5997,13.8,11.61,47.84626,-54.09684
2022-10-06 14:19:00+00:00,206.8464,13.8,11.77,47.84626,-54.09684
2022-10-06 14:29:00+00:00,201.7965,13.8,11.77,47.84626,-54.09684
2022-10-06 14:39:00+00:00,201.7148,13.83,11.77,47.84626,-54.09684
2022-10-06 14:49:00+00:00,204.0564,13.85,11.77,47.84626,-54.09684
2022-10-06 14:59:00+00:00,201.9864,13.86,11.77,47.84626,-54.09684
2022-10-06 15:09:00+00:00,202.2331,13.86,11.77,47.84626,-54.09684
2022-10-06 15:19:00+00:00,204.1431,13.87,11.77,47.84626,-54.09684
2022-10-06 15:29:00+00:00,201.0031,13.9,11.77,47.84626,-54.09684
2022-10-06 15:39:00+00:00,198.7148,13.9,11.77,47.84626,-54.09684
2022-10-06 15:49:00+00:00,201.7631,13.9,11.77,47.84626,-54.09684
2022-10-06 15:59:00+00:00,202.6398,13.9,11.77,47.84626,-54.09684
2022-10-06 16:09:00+00:00,207.3265,13.9,11.77,47.84626,-54.09684
2022-10-06 16:19:00+00:00,217.4748,13.95,11.93,47.84626,-54.09684
2022-10-06 16:29:00+00:00,224.9515,13.98,11.93,47.84626,-54.09684
2022-10-06 16:39:00+00:00,226.1597,13.99,11.93,47.84626,-54.09684
2022-10-06 16:49:00+00:00,230.9247,13.97,11.93,47.84626,-54.09684
2022-10-06 16:59:00+00:00,238.1397,13.96,11.93,47.84626,-54.09684
2022-10-06 17:09:00+00:00,240.0231,13.97,11.93,47.84626,-54.09684
2022-10-06 17:19:00+00:00,241.4897,14.0,11.86,47.84626,-54.09684
2022-10-06 17:29:00+00:00,249.9897,14.0,11.86,47.84626,-54.09684
2022-10-06 17:39:00+00:00,257.3564,14.0,11.86,47.84626,-54.09684
2022-10-06 17:49:00+00:00,260.3681,14.0,11.86,47.84626,-54.09684
2022-10-06 17:59:00+00:00,265.5414,14.0,11.86,47.84626,-54.09684
2022-10-06 18:09:00+00:00,278.1198,14.0,11.86,47.84626,-54.09684
2022-10-06 18:19:00+00:00,287.6347,14.0,11.77,47.84626,-54.09684
2022-10-06 18:29:00+00:00,290.8347,14.0,11.77,47.84626,-54.09684
2022-10-06 18:39:00+00:00,297.873,14.0,11.77,47.84626,-54.09684
2022-10-06 18:49:00+00:00,310.6313,14.0,11.77,47.84626,-54.09684
2022-10-06 18:59:00+00:00,315.8748,14.0,11.77,47.84626,-54.09684
2022-10-06 19:09:00+00:00,317.468,14.0,11.77,47.84626,-54.09684
2022-10-06 19:19:00+00:00,324.3446,14.0,11.7,47.84626,-54.09684
2022-10-06 19:29:00+00:00,329.0629,14.0,11.7,47.84626,-54.09684
2022-10-06 19:39:00+00:00,328.8231,14.0,11.7,47.84626,-54.09684
2022-10-06 19:49:00+00:00,334.4496,14.1,11.7,47.84626,-54.09684
2022-10-06 19:59:00+00:00,343.5297,14.1,11.7,47.84626,-54.09684
2022-10-06 20:09:00+00:00,343.423,14.13,11.7,47.84626,-54.09684
2022-10-06 20:19:00+00:00,341.1962,14.17,11.61,47.84626,-54.09684
2022-10-06 20:29:00+00:00,346.3113,14.16,11.61,47.84626,-54.09684
2022-10-06 20:39:00+00:00,352.8528,14.16,11.61,47.84626,-54.09684
2022-10-06 20:49:00+00:00,352.7346,14.18,11.61,47.84626,-54.09684
2022-10-06 20:59:00+00:00,354.0879,14.19,11.61,47.84626,-54.09684
2022-10-06 21:09:00+00:00,355.2578,14.17,11.61,47.84626,-54.09684
2022-10-06 21:19:00+00:00,353.3846,14.18,11.61,47.84626,-54.09684
2022-10-06 21:29:00+00:00,348.3963,14.15,11.61,47.84626,-54.09684
2022-10-06 21:39:00+00:00,353.3279,14.15,11.61,47.84626,-54.09684
2022-10-06 21:49:00+00:00,355.4179,14.17,11.61,47.84626,-54.09684
2022-10-06 21:59:00+00:00,352.7246,14.15,11.61,47.84626,-54.09684
2022-10-06 22:09:00+00:00,352.37300000000016,14.13,11.61,47.84626,-54.09684
2022-10-06 22:19:00+00:00,355.6979,14.15,11.61,47.84626,-54.09684
2022-10-06 22:29:00+00:00,347.343,14.1,11.61,47.84626,-54.09684
2022-10-06 22:39:00+00:00,342.4197,14.1,11.61,47.84626,-54.09684
2022-10-06 22:49:00+00:00,345.6245,14.1,11.61,47.84626,-54.09684
2022-10-06 22:59:00+00:00,340.8230000000001,14.1,11.61,47.84626,-54.09684
2022-10-06 23:09:00+00:00,326.2897,14.1,11.61,47.84626,-54.09684
2022-10-06 23:19:00+00:00,320.5296,14.1,11.61,47.84626,-54.09684
2022-10-06 23:29:00+00:00,315.58299999999997,14.1,11.61,47.84626,-54.09684
2022-10-06 23:39:00+00:00,300.9896,14.1,11.61,47.84626,-54.09684
2022-10-06 23:49:00+00:00,296.533,14.1,11.61,47.84626,-54.09684
2022-10-06 23:59:00+00:00,298.783,14.1,11.61,47.84626,-54.09684
